Theta_e
303 303 303 303 304 305 306 307 307 306 305 304 304 304 303 303 304 304 305 305 305 305 306 306 307 307 307 306 306 306 307 307 306 307 312 312 313 315 314 314 313 309 308 308 310 316 316 315 316 316 316 316 315 316 315 316 316 317 317 316 315 316 317 318 319 319 319 319 320 321 320 320 319 320 321 321 322 322 321 321 328 334 336 337 341 340 340 344
304 305 306 307 308 309 309 309 307 306 304 303 304 304 303 303 303 304 305 305 305 305 306 307 306 306 306 306 306 306 306 307 307 307 310 313 315 316 314 314 312 309 308 308 311 315 316 315 315 315 316 316 316 315 315 316 317 317 317 316 315 316 318 319 320 320 319 319 319 320 320 320 319 320 320 321 323 323 322 321 328 337 340 343 345 344 344 345
308 309 309 310 310 310 309 308 307 305 304 303 304 304 304 303 303 304 304 305 305 306 306 306 306 306 306 306 306 306 306 307 311 312 312 314 315 313 312 311 310 309 309 308 312 315 315 315 315 315 316 315 315 315 315 316 317 317 316 316 316 317 318 319 320 320 320 319 318 319 319 320 320 319 320 321 322 323 323 319 327 337 342 345 345 345 346 346
311 310 310 310 310 310 309 308 308 307 305 304 303 304 304 304 303 303 303 305 305 306 306 305 305 306 306 306 305 305 308 312 317 319 318 317 314 311 309 308 308 309 309 310 313 315 315 315 315 315 315 315 315 316 315 316 317 317 316 315 316 318 318 319 320 319 319 319 319 319 319 319 319 319 320 321 321 322 323 320 325 336 341 343 344 346 347 346
311 310 311 311 311 310 310 310 311 310 308 305 303 304 304 304 304 303 303 304 304 305 305 305 305 305 305 304 305 307 312 319 321 321 319 315 312 310 309 308 309 309 309 312 315 316 315 315 315 315 315 315 315 315 316 316 317 317 317 316 317 317 317 319 319 319 318 318 318 319 318 319 318 319 320 320 321 322 325 328 323 329 339 340 343 347 347 347
311 311 311 312 311 311 312 313 312 312 312 310 305 303 304 304 304 304 303 303 304 304 304 304 304 304 304 306 307 309 315 321 320 320 321 317 313 310 309 308 308 309 311 314 316 316 316 315 314 314 315 314 314 315 316 317 316 315 317 317 317 317 317 318 319 318 317 318 318 317 318 319 319 319 319 320 321 323 330 333 327 327 337 338 342 345 346 346
311 311 311 311 312 313 313 313 312 312 313 313 311 305 303 304 304 304 305 304 303 303 304 304 304 304 306 307 310 313 317 322 321 320 319 316 313 309 309 308 308 309 313 316 316 315 314 314 314 314 314 313 314 315 316 317 316 316 316 317 317 317 318 318 318 317 317 317 317 317 318 318 319 318 319 322 322 325 332 334 333 334 336 339 343 345 346 346
312 312 312 312 312 313 314 313 312 312 312 313 315 310 304 303 304 304 305 305 303 304 303 304 303 305 307 308 311 318 321 321 321 319 313 311 311 309 309 308 308 310 313 316 317 315 314 313 314 314 314 314 314 315 316 316 316 316 315 316 317 317 318 317 317 317 317 317 317 317 318 318 318 318 320 323 322 326 332 334 336 336 338 341 343 345 345 345
311 312 312 312 312 312 313 312 312 312 311 312 315 316 309 304 304 304 305 305 304 304 304 305 304 306 308 307 313 320 321 319 318 315 310 310 310 308 309 309 309 311 314 317 317 315 314 314 314 314 314 314 315 316 316 316 316 316 316 316 317 316 317 317 317 317 317 317 317 317 318 318 319 319 320 323 325 327 330 333 335 337 339 342 343 344 345 343
309 311 313 313 312 312 312 312 311 311 312 312 313 317 316 308 304 305 305 305 305 305 304 305 305 307 308 310 317 321 317 317 316 312 309 309 309 308 309 311 311 313 315 316 316 315 314 314 314 314 314 315 316 316 316 315 316 317 316 317 317 317 317 317 317 317 317 317 317 317 317 318 319 319 319 324 328 327 329 332 332 335 338 340 340 340 342 342
306 309 311 313 313 313 312 312 311 311 311 312 313 316 317 310 305 305 305 305 305 305 305 305 306 308 308 312 320 321 314 315 315 312 311 310 309 310 312 314 313 314 315 315 315 314 313 314 315 315 315 315 316 316 316 316 316 317 316 317 316 317 317 317 317 318 317 317 317 318 317 318 320 319 320 324 328 326 328 331 331 332 336 339 338 336 335 338
305 306 308 310 312 312 312 312 311 310 311 312 314 315 315 310 307 307 305 305 305 305 306 305 307 307 308 314 321 320 313 314 315 313 313 312 311 313 315 315 314 314 316 315 314 314 314 315 316 315 315 315 315 315 316 316 316 316 316 316 316 316 316 316 317 317 317 317 318 318 316 317 320 319 320 324 325 325 328 330 331 330 333 337 338 337 335 334
304 305 306 307 310 311 311 312 311 310 310 312 314 314 314 312 311 310 307 305 305 305 305 306 307 306 311 319 321 316 314 313 314 313 313 313 313 315 316 315 314 314 316 315 313 314 314 314 315 315 316 316 317 316 315 316 317 316 316 315 315 315 315 317 317 317 317 317 318 318 314 316 319 319 322 325 324 325 328 329 329 329 331 334 336 338 336 334
304 304 305 305 307 309 310 311 311 310 309 312 314 314 314 313 313 312 310 307 305 306 306 307 307 308 315 322 317 314 315 314 313 313 314 314 315 315 314 314 314 315 316 315 314 314 314 314 314 314 315 316 317 317 316 317 316 315 315 315 314 312 314 318 318 317 317 316 319 317 313 315 319 320 321 323 323 324 327 329 328 330 332 333 335 336 335 334
304 304 304 304 305 307 309 310 310 310 309 311 314 314 313 313 313 313 313 311 307 307 306 308 309 311 319 324 316 313 312 313 314 313 313 313 314 314 312 313 313 314 315 314 314 314 314 314 314 315 316 316 316 315 316 316 316 315 314 313 314 313 314 318 318 317 317 317 319 317 313 316 319 321 320 321 322 322 326 328 329 331 332 333 335 334 334 333
304 304 304 304 304 305 307 308 309 310 309 310 313 314 313 312 313 312 313 313 311 308 306 312 318 318 321 321 316 313 311 314 315 313 313 313 313 313 312 313 313 313 313 313 314 314 314 314 315 315 316 317 316 315 315 315 315 316 314 312 314 314 314 316 317 318 318 317 318 317 315 316 318 320 319 320 320 320 324 328 331 332 332 331 332 333 335 333
304 304 304 304 304 304 305 306 307 308 308 310 313 314 312 312 313 312 313 314 313 310 307 314 321 320 321 319 316 314 312 316 315 313 314 313 314 314 313 313 313 313 313 314 314 314 315 314 315 315 316 316 316 316 314 313 313 316 315 313 314 315 314 315 316 319 318 317 318 317 316 317 318 320 319 319 320 320 321 328 332 332 330 329 329 332 334 333
304 304 305 304 304 304 304 305 306 306 307 310 313 314 313 312 313 313 313 313 313 312 311 313 317 319 320 319 318 315 314 316 315 314 314 313 314 314 313 313 314 314 314 314 314 314 315 315 315 316 316 316 316 316 313 313 315 316 316 314 314 315 316 315 316 318 318 318 317 317 317 317 319 318 319 319 319 321 319 324 331 330 328 328 329 331 333 333
303 304 305 305 304 304 305 305 306 306 308 311 313 313 313 315 316 315 313 314 315 315 316 316 317 318 318 318 318 316 316 316 315 315 314 314 314 314 314 314 314 315 314 315 315 315 315 316 316 316 316 316 317 317 316 317 318 317 317 315 314 314 315 317 318 319 318 317 318 318 316 317 319 318 319 319 318 320 319 321 327 329 330 330 330 332 332 333
302 304 304 305 305 305 305 306 306 308 310 314 313 314 319 322 324 320 316 317 318 316 317 318 317 317 318 317 318 317 316 316 314 315 315 314 314 314 314 315 315 315 315 316 316 316 316 317 316 316 318 320 320 320 320 320 319 319 319 317 316 315 316 317 318 319 318 318 318 318 318 317 318 319 320 320 319 319 320 320 322 327 330 330 331 333 332 332
302 303 304 305 305 305 306 307 308 311 313 314 313 315 322 323 320 320 319 319 320 317 317 318 317 316 317 318 318 317 316 315 315 315 315 315 314 314 315 315 315 315 315 316 317 318 317 316 317 318 321 321 321 321 321 320 319 319 318 316 316 316 316 317 319 318 319 318 317 318 318 318 319 319 320 319 320 320 319 321 320 323 325 326 329 331 332 332
302 303 304 305 305 306 307 309 311 313 313 314 313 316 322 318 315 317 317 318 319 318 317 317 318 317 316 318 318 317 316 315 315 315 315 315 314 314 315 314 314 315 316 316 317 318 317 316 316 318 321 321 320 320 320 319 319 318 317 316 314 316 317 318 320 319 318 317 317 318 317 318 320 319 320 320 320 320 319 320 320 320 321 322 325 328 330 330
304 303 303 305 306 307 308 310 313 314 313 314 313 316 320 317 315 316 317 318 318 319 318 316 317 317 316 318 318 316 316 317 316 315 315 315 315 315 315 315 314 315 316 316 316 316 315 316 318 319 319 320 319 318 319 318 317 317 316 314 313 315 315 315 318 320 319 318 317 318 317 319 321 319 320 320 320 321 320 319 319 319 320 320 323 326 329 328
305 304 303 304 306 308 309 311 312 312 312 313 312 316 318 316 316 317 317 319 319 319 319 316 316 316 316 317 317 316 316 317 317 317 316 315 315 315 315 316 315 315 315 316 317 316 315 317 319 318 319 318 318 318 318 317 315 316 317 315 314 316 316 316 319 320 320 320 320 319 316 317 320 319 319 320 320 320 320 320 319 319 320 320 320 325 328 328
305 305 303 303 305 307 308 310 313 314 314 314 315 317 318 316 317 317 318 320 320 320 319 317 315 315 316 316 317 316 316 317 317 317 316 315 315 315 315 315 315 315 315 315 316 316 316 318 319 318 318 317 316 317 318 318 316 316 318 317 316 317 317 317 319 319 318 318 320 319 315 314 317 318 319 320 319 320 320 320 320 319 319 321 319 322 327 329
305 305 305 304 303 305 307 311 316 317 316 317 318 318 316 316 317 317 320 322 321 320 318 317 315 314 316 317 317 315 316 317 317 317 316 315 315 316 316 316 316 315 316 316 317 315 316 318 318 318 317 317 317 316 317 319 317 315 317 319 318 318 318 318 318 318 316 317 320 320 316 314 315 317 319 319 318 319 320 320 320 320 319 320 320 321 325 328
305 305 306 305 303 304 306 313 318 316 315 317 318 317 316 317 317 318 322 322 321 319 316 315 314 315 317 318 317 315 316 317 317 317 317 315 315 316 315 316 316 315 316 316 315 315 317 317 317 317 317 317 316 315 316 318 316 317 320 319 318 318 318 318 317 317 317 317 319 319 317 315 315 317 318 319 318 319 320 320 320 319 319 319 320 320 320 324
305 305 306 307 305 303 304 310 313 313 315 317 316 316 317 317 318 321 323 322 321 319 316 314 315 316 316 317 317 316 316 317 317 317 317 316 316 316 315 315 316 315 316 315 313 316 318 317 317 317 316 316 315 316 317 317 316 318 320 318 317 318 318 318 317 316 317 317 315 316 317 315 314 316 319 319 318 319 320 320 320 319 319 320 319 319 320 321
305 304 305 307 306 304 303 304 306 309 312 314 315 317 317 315 317 322 323 322 320 316 317 315 314 316 317 317 317 316 317 317 317 317 317 316 315 315 315 315 316 315 316 316 314 316 317 317 317 317 316 316 316 316 317 317 317 318 319 318 318 318 318 318 317 316 317 317 315 316 316 315 314 316 318 318 317 319 321 320 320 320 319 319 319 320 321 321
304 304 306 308 307 307 308 309 310 310 309 312 316 316 316 316 319 323 321 321 318 315 317 315 315 317 317 316 316 317 317 317 317 316 316 316 316 315 316 316 316 315 316 316 315 316 317 317 317 316 316 316 316 316 317 317 318 318 318 318 318 318 318 318 317 316 317 317 316 316 316 316 315 315 317 318 318 319 321 320 320 321 320 320 321 321 320 321
304 304 305 307 308 308 312 316 317 313 313 315 315 314 315 318 321 322 321 320 317 316 316 315 315 316 316 315 316 316 316 317 316 316 315 315 315 315 315 315 316 314 315 316 315 315 316 316 316 315 315 315 315 315 316 316 317 317 317 316 316 316 316 317 316 316 318 317 316 316 317 315 314 316 318 319 319 320 320 319 320 321 320 320 320 320 320 320
303 304 304 307 309 308 311 317 319 318 318 315 312 313 316 318 319 320 321 319 318 317 315 315 316 316 315 315 315 315 316 315 316 316 315 314 315 315 314 315 314 313 312 313 315 315 315 316 316 315 315 314 314 313 314 314 315 315 315 314 315 315 316 317 317 317 317 317 317 318 318 316 314 317 319 319 319 319 319 320 320 320 320 320 319 319 320 320
303 304 303 306 309 309 311 313 315 318 317 313 312 316 318 317 318 318 318 318 318 316 314 316 315 315 316 314 314 316 315 315 316 315 315 315 315 315 314 314 315 314 313 314 314 314 315 316 316 316 315 314 314 312 312 313 314 315 314 314 315 315 317 319 318 318 318 317 317 317 317 315 315 318 319 318 318 319 320 320 320 320 319 319 318 319 320 321
303 303 304 304 307 309 311 312 313 314 314 316 318 318 317 317 318 317 316 316 317 316 315 316 315 315 315 314 314 316 315 315 315 315 316 315 315 316 315 315 315 315 315 315 314 314 314 315 315 316 315 316 315 313 313 314 314 316 315 315 315 315 317 318 317 317 317 316 316 316 316 315 316 319 320 318 319 320 319 319 320 320 319 318 318 318 321 322
303 303 304 304 305 308 310 313 314 312 314 319 319 316 316 317 317 315 315 315 315 316 316 315 315 315 315 314 315 315 315 315 315 315 315 314 315 315 315 315 315 315 315 314 314 313 312 312 315 316 316 315 315 314 314 314 313 315 316 315 315 315 316 316 316 316 316 315 315 315 315 316 317 320 319 318 319 318 318 319 319 319 318 318 319 320 322 323
304 306 307 305 305 306 309 313 315 314 315 319 317 315 316 316 315 315 314 314 314 315 315 315 315 314 313 314 314 315 314 315 315 315 314 314 315 314 315 315 315 315 313 313 313 313 312 312 315 315 315 315 315 315 315 314 313 314 314 314 315 316 316 315 315 316 316 316 316 315 315 316 317 318 318 319 319 316 317 318 317 318 318 319 320 322 323 324
303 307 311 311 310 310 312 315 317 318 318 318 316 316 315 315 316 314 314 315 315 314 315 314 315 314 313 313 313 314 314 314 314 314 314 314 314 314 314 315 315 314 314 313 314 314 313 313 314 314 315 315 315 315 314 315 314 313 312 314 315 316 316 316 314 314 315 316 316 314 314 315 315 316 318 318 317 317 316 316 317 318 319 320 321 323 324 324
302 304 309 312 312 315 317 318 319 320 318 316 315 316 315 314 315 314 314 314 314 314 314 313 315 314 313 313 313 314 314 314 314 313 313 312 313 314 314 314 316 315 315 314 314 314 314 312 314 315 314 315 315 315 313 314 315 313 313 314 314 313 313 314 314 314 315 316 315 314 314 313 313 314 317 317 317 317 316 315 317 318 319 321 322 323 324 324
302 306 309 309 311 316 317 317 318 318 316 315 314 314 314 313 314 314 314 314 313 313 313 312 313 314 313 314 314 314 314 314 313 313 312 312 314 315 314 314 315 315 315 315 313 314 314 314 314 314 313 314 314 314 313 313 315 313 313 314 313 312 313 313 314 314 314 315 316 315 313 313 316 317 317 317 317 318 317 316 317 318 319 321 322 322 323 323
309 313 314 312 313 316 316 316 318 317 315 314 313 313 313 313 313 314 313 313 313 313 311 312 313 313 314 314 314 314 315 314 314 313 312 312 313 314 314 314 315 315 315 314 313 314 314 314 315 314 313 314 313 313 313 313 313 313 313 313 313 314 314 313 313 312 313 314 315 315 314 315 319 319 317 318 318 319 320 319 317 318 319 321 322 322 322 323
311 314 314 314 315 316 316 315 315 314 314 314 313 313 313 313 313 314 314 313 313 312 311 311 312 313 314 314 314 314 314 314 314 314 313 313 313 314 314 315 315 315 314 313 313 314 314 314 314 313 312 312 312 314 315 314 314 314 314 313 314 316 315 315 316 316 314 314 315 315 315 317 320 319 317 318 319 319 319 318 318 318 319 321 321 321 321 321
309 312 314 316 315 316 317 314 313 314 313 313 313 312 313 313 313 313 314 314 313 312 311 311 312 313 313 314 315 314 314 314 313 314 314 313 313 313 314 315 315 314 313 312 312 315 315 314 313 313 312 312 313 314 314 314 314 314 314 314 315 315 314 314 315 316 315 314 315 315 316 319 322 319 318 319 317 318 318 318 318 320 320 320 320 320 320 320
313 313 313 315 314 315 316 313 312 313 313 313 313 312 313 314 313 313 313 313 312 311 311 311 312 312 313 313 314 313 314 314 313 313 313 313 313 313 313 313 313 312 311 311 312 313 314 313 312 313 312 312 312 312 312 313 312 312 313 313 313 313 314 314 314 314 313 313 313 314 316 319 321 320 318 318 317 317 318 318 319 320 320 320 320 319 319 319
314 313 314 315 313 313 314 313 312 312 312 313 313 312 313 313 313 313 312 312 313 312 312 312 312 313 313 312 313 313 313 313 313 313 313 313 312 312 312 312 311 310 311 313 314 314 313 313 312 312 312 312 312 311 311 311 312 312 313 314 314 313 314 315 314 314 314 313 313 315 315 317 319 318 317 317 316 317 318 318 319 320 320 319 319 319 318 318
314 313 313 312 313 313 313 312 311 311 312 313 313 312 312 312 313 313 312 312 313 313 313 313 314 313 313 313 313 313 313 313 313 312 313 312 312 312 313 311 311 311 314 315 314 314 313 313 313 313 312 313 313 311 311 312 312 313 312 313 314 314 315 315 314 314 315 315 315 315 315 316 318 317 316 316 316 316 317 317 319 320 319 319 318 318 318 317
313 312 311 311 312 312 312 311 310 311 311 312 313 313 312 313 313 313 312 312 312 312 313 313 313 313 313 313 313 313 313 312 312 312 312 312 312 312 312 311 311 313 314 313 312 312 312 312 313 312 312 312 312 311 312 312 312 312 312 312 313 314 314 315 314 314 315 315 315 315 316 316 317 316 315 316 317 316 316 317 318 319 319 318 318 318 318 317
312 311 311 312 312 311 311 311 310 310 311 312 312 312 312 313 313 312 312 311 311 311 312 312 311 312 312 313 312 312 313 312 312 312 312 311 311 312 312 311 312 312 312 311 311 310 309 310 311 311 311 311 311 311 311 311 311 311 311 312 312 313 313 314 315 314 314 315 315 315 316 316 315 315 315 316 316 316 316 317 317 318 318 318 318 318 318 317
310 311 311 310 310 311 312 312 312 311 312 311 311 312 312 313 313 312 311 311 312 311 311 311 311 311 311 311 312 312 312 312 312 312 312 311 311 311 311 311 312 311 310 310 310 310 310 310 311 310 311 310 310 311 311 311 311 311 311 311 311 312 312 313 314 314 313 314 314 314 315 316 315 314 314 315 315 315 316 316 316 316 316 317 317 317 316 317
308 310 310 308 310 312 311 311 312 311 311 311 311 311 312 312 313 312 311 312 312 311 311 311 310 310 310 310 310 311 313 313 313 314 314 313 312 312 312 312 312 312 311 310 311 311 311 311 311 310 310 310 310 311 311 310 311 311 311 311 311 311 312 312 313 313 313 314 314 314 316 316 315 313 314 314 314 314 315 314 314 314 315 316 317 317 315 315
307 309 308 308 311 312 309 309 310 310 310 311 310 310 311 311 311 312 311 311 311 311 311 311 311 310 310 310 310 312 313 314 314 315 314 314 313 312 312 312 311 311 311 311 311 312 311 310 311 311 311 311 310 310 310 310 310 310 310 310 311 311 312 312 313 314 314 314 314 315 317 316 314 313 314 314 314 314 314 313 313 314 313 314 315 316 315 314
304 306 307 309 310 310 308 309 309 309 309 310 310 310 310 310 310 311 310 310 309 310 310 310 311 311 311 311 311 312 312 312 312 313 313 312 312 312 311 311 311 310 311 311 311 312 311 310 311 311 311 311 310 309 310 310 310 310 310 311 311 311 312 313 313 313 314 314 315 315 315 314 313 313 313 313 313 313 314 313 314 313 313 313 313 314 314 314
301 304 307 308 309 309 308 308 309 309 309 309 310 309 309 309 309 309 309 309 309 308 308 309 309 310 310 311 311 310 309 310 310 310 310 310 310 310 310 310 310 310 310 310 311 311 310 310 310 310 310 310 310 310 310 310 310 310 311 312 312 312 312 313 313 314 314 314 314 313 313 312 312 313 313 313 313 313 313 313 313 313 313 313 312 312 313 313
Wind_Speed
8 7 7 6 6 6 7 8 8 8 8 7 6 7 6 6 5 4 4 4 4 4 3 2 2 3 3 4 5 6 7 9 9 10 15 13 9 14 15 12 12 9 8 8 7 9 12 13 14 13 13 14 14 14 14 15 15 11 7 7 7 8 10 8 12 8 3 3 3 8 5 2 5 6 5 4 8 13 17 15 7 14 12 16 17 21 24 24
7 7 6 6 6 6 6 7 7 7 6 6 6 6 6 5 5 4 3 3 3 2 2 1 1 2 3 4 5 7 8 9 11 14 17 13 12 16 16 17 15 10 10 11 11 12 13 13 13 13 14 14 14 14 14 14 15 11 6 7 8 9 11 13 17 8 5 6 8 9 3 1 4 7 7 4 8 11 12 14 9 23 20 22 22 20 21 25
7 7 6 6 6 6 6 6 7 7 6 6 5 5 5 5 4 4 3 2 2 1 1 1 2 3 3 4 5 7 8 9 13 15 12 10 13 16 16 16 14 11 11 12 12 12 13 13 12 13 14 14 14 14 14 12 12 11 9 7 9 11 14 18 19 9 7 10 10 8 4 3 7 8 6 6 10 11 9 12 9 22 23 23 23 20 21 24
7 7 7 7 6 6 6 6 7 7 7 6 5 5 5 5 4 4 3 2 1 2 1 1 2 3 3 4 5 5 7 9 10 8 6 7 10 12 14 13 12 12 11 13 12 12 12 13 12 13 14 13 14 16 14 12 10 10 10 9 11 15 14 14 13 7 8 10 9 11 8 7 12 7 5 8 9 10 10 15 15 21 27 25 24 21 21 24
7 7 7 7 6 6 6 6 7 7 7 7 6 5 4 4 4 4 3 2 2 2 1 2 2 3 4 3 4 4 5 4 0 3 3 5 7 9 11 10 11 12 12 13 11 12 13 14 12 13 13 11 13 13 12 15 13 9 11 13 15 17 13 11 9 3 4 7 8 11 10 11 12 7 9 11 8 9 5 6 14 19 29 28 26 23 23 23
6 7 7 7 6 6 6 6 7 7 8 8 7 5 4 4 4 4 3 2 1 2 2 3 3 4 3 2 4 3 3 3 2 3 7 6 7 8 8 9 11 13 14 12 11 12 12 13 12 13 12 10 12 12 12 17 15 9 10 14 16 17 14 11 8 3 2 5 9 10 12 12 9 10 14 11 10 8 9 19 13 10 27 26 25 25 25 23
6 6 6 6 6 5 5 6 7 8 8 8 8 7 4 3 3 4 3 3 2 1 3 3 3 4 2 3 5 4 8 10 4 6 9 8 8 7 8 9 12 15 15 12 13 12 11 13 14 13 11 9 12 14 14 16 17 13 10 12 15 16 14 12 10 7 6 7 11 13 12 11 10 12 11 9 11 5 10 16 18 22 23 21 23 23 24 24
6 6 6 6 6 5 5 6 7 8 9 9 9 7 6 4 4 4 4 3 2 2 3 3 4 4 3 3 4 7 13 11 6 8 9 8 7 6 9 11 13 17 15 13 14 11 11 13 14 14 11 10 12 14 15 15 16 13 10 12 15 15 11 11 11 10 11 11 12 13 11 12 14 12 7 7 10 6 12 15 17 20 17 17 19 19 22 23
7 7 7 6 6 6 6 7 7 8 8 9 9 8 7 5 4 4 4 3 2 2 2 3 4 4 4 4 4 9 8 5 7 11 7 5 5 7 11 12 14 16 12 13 14 12 12 12 15 15 12 13 13 12 14 11 8 8 11 15 16 15 11 10 13 14 14 13 12 13 11 15 16 9 7 9 7 9 11 18 15 14 15 16 19 20 21 22
8 8 7 7 7 7 7 7 7 7 8 9 10 8 7 6 5 4 5 4 2 2 2 4 4 3 4 4 6 7 1 1 5 5 4 5 6 10 12 13 13 13 12 12 13 14 13 12 13 13 12 14 13 11 11 9 7 8 12 15 16 15 11 11 15 15 13 13 14 13 12 15 13 5 6 7 7 8 10 16 12 11 13 15 19 20 19 22
9 8 9 8 8 8 7 7 7 7 8 9 10 9 7 7 6 5 4 2 2 2 3 4 4 4 4 4 9 7 1 2 2 3 6 7 9 11 11 12 12 12 13 11 11 13 13 11 10 10 8 8 10 10 11 13 12 11 10 12 14 12 13 15 15 12 10 12 15 13 13 14 9 7 10 9 9 10 11 14 10 10 12 12 14 15 15 18
9 9 9 9 8 8 7 7 7 7 8 8 9 9 7 7 6 5 3 2 1 2 4 4 4 5 5 8 14 9 2 2 5 6 8 9 10 10 9 10 12 13 12 9 10 12 12 9 8 11 8 4 9 8 7 14 14 11 9 9 12 13 14 17 15 13 11 11 13 13 13 10 8 10 10 10 9 10 13 15 10 11 12 10 8 10 14 15
8 9 9 9 9 8 8 7 7 7 8 8 9 8 7 6 6 6 4 2 1 3 4 5 5 6 6 9 11 6 1 2 5 7 9 10 10 9 8 9 12 13 12 9 9 10 10 9 9 13 12 9 10 4 5 8 10 10 10 9 11 11 12 16 16 15 13 12 14 12 9 7 12 12 9 10 9 10 12 15 12 13 15 13 8 8 13 13
8 8 9 9 9 9 8 8 7 7 8 8 8 7 7 6 6 6 5 3 1 3 5 5 6 5 5 8 4 5 6 4 5 8 10 11 11 9 9 9 10 11 11 9 7 6 8 9 10 13 13 14 14 8 6 7 7 8 10 9 7 8 11 14 14 13 13 11 14 10 7 6 10 11 12 8 9 9 10 15 12 14 18 17 15 14 12 12
8 7 8 9 9 10 9 8 8 7 8 8 8 8 8 7 7 6 4 4 2 3 5 5 5 4 7 10 6 6 7 7 7 9 11 12 11 9 9 10 10 9 9 8 6 5 8 9 10 12 12 13 12 9 8 8 7 7 8 8 7 9 9 10 12 11 10 8 13 10 7 7 10 12 14 8 9 10 10 20 16 14 17 19 21 18 13 12
7 7 8 8 9 9 10 10 9 9 8 8 8 8 8 8 7 7 6 5 3 4 5 3 4 7 8 6 5 6 7 10 9 9 11 12 11 10 9 9 9 8 8 9 7 5 8 10 11 13 13 11 9 8 7 6 7 7 7 7 8 10 5 9 11 12 10 9 13 11 8 8 6 11 13 8 9 11 9 21 23 18 19 19 17 18 17 15
7 7 7 8 8 9 9 10 10 10 9 8 8 8 9 10 9 8 7 5 4 3 6 4 3 8 10 5 4 8 9 10 9 11 12 11 11 9 9 9 10 9 8 8 8 7 9 10 10 10 10 8 6 7 6 7 7 6 7 7 8 12 6 7 10 11 11 11 10 11 12 10 4 11 10 7 8 12 10 16 26 25 21 17 14 16 18 17
7 7 7 7 7 8 8 8 8 8 7 7 8 9 11 11 10 9 7 6 3 2 6 7 3 6 11 13 12 12 12 10 10 11 11 10 10 7 9 11 9 9 10 9 10 11 9 10 9 7 7 7 7 7 7 7 4 4 5 6 7 10 8 7 7 9 10 9 8 9 11 11 6 9 9 9 8 11 11 13 25 26 22 19 18 19 19 20
7 7 7 7 7 7 6 6 6 5 5 6 8 10 12 12 11 9 8 7 5 5 3 8 14 6 3 11 14 11 11 10 10 11 11 11 9 7 10 11 9 11 11 7 10 12 9 8 7 7 6 7 9 7 4 6 8 11 12 7 7 7 7 8 2 8 7 7 9 10 10 12 10 10 10 11 9 8 11 10 19 24 27 30 28 26 24 24
8 7 7 7 6 6 5 4 4 3 4 6 8 10 11 9 7 5 6 11 14 14 11 7 21 18 6 7 10 8 9 9 10 11 12 11 9 9 12 11 10 11 9 8 8 9 9 7 6 8 4 2 3 2 5 9 10 12 13 6 6 6 7 8 4 10 5 4 7 9 12 13 11 9 8 9 10 8 8 7 8 17 27 33 32 30 28 27
9 7 7 6 5 5 3 2 2 3 4 6 8 9 8 7 5 2 2 11 17 20 21 15 17 21 11 3 9 9 9 10 11 12 12 12 11 10 11 12 10 8 8 12 7 5 5 6 8 9 1 4 4 7 6 8 9 9 10 8 5 6 7 3 4 8 6 2 5 6 12 12 9 10 9 6 6 7 6 9 8 11 16 19 26 31 27 26
11 8 7 6 5 4 2 2 3 3 5 6 8 10 9 9 8 7 8 11 15 18 23 19 16 17 12 6 6 7 10 11 12 14 13 14 13 11 10 11 10 8 8 11 6 2 5 8 13 10 2 3 2 6 6 7 9 8 7 7 6 8 7 4 7 3 6 3 6 7 10 10 8 11 7 4 7 6 6 11 13 9 11 12 19 30 27 25
13 9 8 6 5 4 3 3 4 5 6 7 10 12 11 10 8 10 10 11 14 15 21 21 17 15 14 13 9 9 13 12 12 15 16 14 15 14 11 9 9 9 9 10 7 6 6 5 8 4 4 2 4 4 6 6 6 7 6 7 7 8 9 2 5 1 1 1 4 7 8 9 8 7 5 9 12 6 7 15 17 11 11 11 11 25 30 25
16 11 9 7 6 5 5 5 6 7 7 8 10 9 9 10 9 11 10 9 11 12 17 19 18 17 17 15 12 14 16 15 14 16 20 16 15 15 12 11 10 9 10 10 10 10 11 2 7 6 4 1 4 4 5 5 5 8 8 9 9 9 10 5 4 4 4 2 4 9 7 6 8 5 6 12 10 6 10 15 12 9 10 10 8 18 31 28
17 14 10 7 7 6 6 6 6 8 7 9 10 5 6 8 7 9 9 7 8 10 14 16 16 17 18 13 10 14 15 15 18 15 23 18 15 14 11 11 10 8 10 11 10 10 9 2 7 6 2 4 5 5 7 6 6 8 9 11 12 13 13 7 2 5 2 5 5 7 7 5 8 9 10 10 7 8 12 10 7 10 11 11 9 13 27 30
17 15 12 9 8 7 6 6 4 6 9 12 8 4 4 6 8 10 6 5 5 5 9 12 13 12 15 15 12 12 11 12 15 11 21 16 15 14 9 8 8 9 10 9 7 6 3 1 2 3 3 5 7 7 8 8 7 6 5 7 11 12 12 10 6 3 4 5 5 7 6 5 6 8 10 11 11 11 10 8 9 13 13 11 10 9 15 25
16 16 13 10 8 7 8 6 4 5 8 6 3 4 6 7 9 9 4 5 4 6 8 10 10 9 13 15 13 11 6 7 11 13 15 11 13 12 9 8 7 7 8 6 2 2 4 5 3 2 4 6 8 7 8 10 8 4 3 7 10 9 10 11 9 6 6 6 3 7 7 6 5 7 8 8 9 11 11 10 10 12 14 12 12 11 11 18
16 16 14 10 8 8 9 9 10 11 8 7 6 6 7 7 8 6 3 4 2 6 8 9 7 6 13 14 15 17 8 5 9 11 11 11 12 11 10 11 10 8 9 8 4 0 4 5 5 4 8 6 7 9 11 12 9 5 3 7 10 10 11 10 9 8 6 7 6 7 8 6 5 7 7 6 6 8 10 10 8 9 11 13 12 10 6 8
16 15 14 11 8 7 8 10 11 11 8 7 9 7 7 8 7 3 4 4 2 4 5 9 8 7 13 12 15 21 13 5 7 8 13 13 13 14 11 10 13 13 7 7 6 3 5 6 4 6 8 6 10 12 11 10 8 4 4 7 9 10 11 9 8 7 5 6 8 8 7 6 5 6 6 6 7 7 8 8 8 8 7 8 5 4 5 4
16 15 13 11 8 6 7 8 7 7 6 7 9 8 8 8 4 3 5 3 3 5 6 8 9 11 13 10 12 17 14 9 7 7 12 12 13 16 14 13 11 11 6 4 8 10 6 4 3 7 8 8 11 11 8 7 5 3 3 6 8 9 9 7 5 5 5 6 8 11 11 8 6 6 5 4 7 7 6 5 6 6 4 5 6 4 1 1
16 15 12 10 7 5 7 6 4 6 4 7 10 8 6 5 4 4 5 3 4 5 8 6 9 13 14 12 11 12 13 12 9 9 9 8 10 13 11 11 8 6 6 5 8 12 8 6 6 8 10 10 10 10 8 7 6 5 5 6 7 6 6 5 5 5 6 6 7 10 12 11 8 5 4 0 6 6 4 5 8 7 6 8 6 4 3 3
16 15 12 10 8 7 9 7 3 5 8 11 11 8 5 5 5 5 6 5 4 4 6 8 10 11 14 15 11 11 12 11 10 11 9 7 8 9 8 7 5 4 7 6 6 7 7 8 8 9 10 10 9 7 7 7 6 6 6 5 6 5 4 5 5 5 6 6 5 5 6 7 6 5 4 3 7 6 2 5 11 10 9 10 7 6 7 5
15 16 13 11 11 10 10 8 6 8 11 10 8 6 5 5 6 7 8 5 3 4 6 8 9 10 12 13 11 11 11 9 11 11 10 10 8 7 9 11 9 7 5 4 4 4 5 9 10 8 9 10 8 6 6 6 5 5 6 5 5 4 5 6 5 6 5 6 6 3 1 3 4 5 5 5 7 9 6 7 10 12 11 9 7 7 8 6
15 16 14 13 13 13 11 9 8 8 7 6 6 6 6 7 7 9 9 7 6 5 6 9 9 11 12 12 10 11 9 8 10 10 9 10 9 6 9 12 10 7 4 4 4 5 6 6 8 8 5 9 8 8 7 7 4 6 7 5 5 4 5 5 4 5 4 4 6 3 1 4 3 3 2 6 7 8 9 9 10 11 10 8 6 6 8 9
14 15 15 14 14 14 12 11 9 6 5 6 6 6 7 7 6 8 8 8 8 7 7 9 9 9 10 11 10 11 10 7 9 10 9 9 8 7 7 8 9 6 5 6 3 4 8 7 6 8 1 4 5 8 7 9 6 3 4 5 5 4 5 5 4 5 5 4 4 3 3 3 1 2 1 8 8 7 10 11 11 11 11 10 8 7 8 9
12 12 15 15 14 13 12 12 10 7 6 7 6 6 8 7 7 7 7 7 7 6 8 9 8 8 8 7 8 10 10 7 7 8 8 9 10 10 9 6 6 7 6 5 3 2 6 6 4 8 5 4 9 8 5 5 4 2 2 4 4 4 6 5 4 5 5 5 5 4 5 3 2 3 5 8 8 9 11 11 12 12 11 11 9 9 10 10
10 11 13 14 14 13 11 12 10 8 8 8 7 7 7 8 10 10 9 9 7 6 7 7 6 7 8 6 7 9 8 6 8 7 6 9 9 9 10 7 6 6 5 4 3 2 3 6 5 4 6 9 10 6 6 7 6 4 4 3 2 5 7 4 4 5 5 5 5 4 7 6 3 3 7 10 10 10 11 11 12 13 12 11 10 11 11 11
11 11 14 17 15 13 13 12 12 12 10 8 8 9 9 10 12 13 13 9 6 6 8 7 4 5 7 6 7 9 7 6 8 8 7 8 4 3 4 6 7 6 5 4 2 1 2 5 7 7 9 8 7 4 6 9 10 9 7 5 3 4 4 3 4 4 5 6 5 6 8 7 5 3 6 11 11 10 12 11 11 12 12 12 12 11 11 12
10 10 14 16 12 13 13 12 12 13 10 7 8 8 8 11 15 18 16 8 6 8 8 8 7 5 6 8 6 8 10 9 8 7 7 7 3 3 3 2 4 6 5 5 5 3 3 4 4 7 11 8 4 4 4 6 8 11 9 6 5 4 3 4 4 3 5 6 5 6 6 4 3 2 3 9 12 10 9 9 9 11 12 14 13 11 12 12
9 9 10 8 10 15 13 11 12 11 9 8 8 8 9 12 14 18 15 5 4 9 8 8 9 6 7 10 9 7 9 9 9 8 7 5 3 1 4 4 5 5 3 4 5 4 3 3 4 6 10 8 4 4 5 5 5 6 6 5 5 4 4 5 5 4 5 6 5 5 5 2 1 1 1 5 8 5 3 5 7 10 13 15 13 12 13 13
9 9 7 8 12 14 13 10 10 9 7 8 9 10 11 9 11 14 10 3 5 11 11 9 9 7 6 8 8 7 7 8 8 7 6 6 4 5 7 6 7 6 3 3 5 3 2 3 5 6 6 7 6 6 7 8 7 6 5 4 5 4 2 3 4 5 5 4 4 6 5 2 0 1 2 1 3 4 3 6 6 12 15 16 14 13 13 14
8 7 5 11 13 13 12 8 8 9 8 8 10 13 11 6 8 12 10 6 7 9 11 11 8 7 7 6 6 7 7 7 8 7 7 7 2 1 4 5 4 2 1 3 3 3 2 3 5 6 6 8 10 11 11 10 8 7 7 6 6 6 4 3 4 5 5 4 4 4 3 2 3 4 4 3 0 3 2 7 4 15 17 15 15 14 14 15
9 6 3 8 10 12 10 7 7 8 8 10 14 16 14 9 8 11 12 10 8 6 8 8 6 6 8 6 6 8 6 6 9 8 8 6 4 9 7 5 3 2 1 5 4 5 3 2 5 7 7 8 11 13 15 13 8 7 7 7 7 8 8 7 6 5 5 6 6 4 4 1 3 5 3 1 1 3 7 11 8 17 16 14 15 15 14 15
12 11 5 6 8 10 10 7 7 7 8 12 14 14 15 12 10 10 10 10 8 6 5 6 5 5 7 7 7 7 6 5 7 8 10 7 5 10 8 6 1 2 1 2 3 4 2 3 4 6 6 7 8 8 9 9 7 6 4 5 6 9 11 10 7 5 5 7 8 7 6 1 2 2 2 2 3 4 9 11 15 17 14 15 14 13 14 14
13 12 10 10 11 12 11 9 8 8 7 11 12 11 13 11 10 11 10 9 9 7 4 5 6 5 5 7 6 6 7 7 5 6 9 7 4 7 5 5 1 2 7 9 6 3 4 3 3 5 5 6 6 4 2 3 4 5 5 6 7 9 12 9 5 5 5 7 7 7 6 1 3 1 1 3 5 4 4 7 16 15 12 14 13 11 13 13
8 6 6 8 10 11 13 14 13 11 7 8 8 8 10 10 9 10 8 9 10 8 5 6 6 5 5 7 7 6 7 9 7 6 7 7 3 5 5 3 3 7 11 9 5 3 4 4 6 8 8 8 9 9 9 9 7 8 9 10 9 8 10 9 5 5 5 6 6 7 7 5 3 2 2 4 6 4 4 2 9 14 11 11 12 10 11 11
7 5 4 3 3 6 9 11 11 9 8 7 6 6 9 10 10 6 4 6 10 7 5 7 8 6 6 7 6 6 7 9 9 8 8 9 4 6 8 3 3 8 8 3 1 1 3 5 8 11 12 13 14 15 15 14 13 13 13 13 12 11 10 8 6 7 7 6 7 6 8 9 8 8 6 6 6 3 4 6 4 10 12 13 12 10 10 10
6 6 7 9 6 6 5 5 7 7 8 7 6 7 8 9 10 6 4 4 8 5 4 6 8 8 8 8 6 6 7 9 9 9 8 8 5 3 6 4 5 9 4 4 5 4 4 6 8 11 13 14 15 16 15 14 13 14 14 15 15 15 12 10 10 12 10 8 9 8 9 10 11 11 10 8 8 7 6 8 6 5 7 11 12 10 10 10
11 9 11 14 9 7 6 9 10 9 7 4 3 6 8 7 9 8 5 3 5 5 5 6 7 9 10 10 8 5 4 5 5 6 6 6 5 4 4 3 4 7 4 4 5 4 3 5 6 9 13 14 15 15 14 14 14 14 16 17 16 15 14 13 14 15 13 13 14 12 10 10 10 10 11 11 12 12 11 8 6 7 7 7 9 9 11 12
14 10 12 16 12 8 8 9 8 8 5 3 3 4 6 7 7 7 5 3 3 5 6 7 8 10 11 10 7 2 4 5 5 5 7 7 4 4 5 4 3 4 4 4 4 4 3 2 5 7 9 11 13 13 13 14 14 15 17 17 16 15 14 14 13 11 11 12 13 12 9 7 7 7 10 12 13 14 13 11 10 12 12 10 9 11 14 14
15 10 10 12 9 7 9 7 6 6 3 3 3 3 5 6 6 5 2 3 4 4 6 8 10 10 11 8 4 7 7 6 6 6 7 7 5 4 4 4 6 7 6 6 4 3 4 3 5 6 7 8 10 12 14 14 14 16 16 15 15 14 11 12 12 10 10 10 10 10 8 6 6 8 10 13 11 10 11 13 14 15 15 17 17 16 16 16
18 12 12 11 8 9 9 5 4 3 3 4 5 5 6 6 6 5 3 3 5 4 4 10 11 8 7 6 9 10 8 6 7 7 8 8 8 8 8 8 9 8 5 5 4 2 3 5 5 6 7 7 10 13 13 12 12 11 9 7 9 10 9 11 11 11 10 8 6 7 6 6 9 10 10 10 8 8 11 14 17 21 19 15 14 15 17 19
Wind_Direction
336 333 329 328 330 325 324 319 315 316 317 321 324 328 328 324 327 324 326 324 305 291 272 262 259 265 267 266 271 267 267 264 254 249 250 243 230 243 248 246 248 244 234 218 185 204 219 222 229 229 232 234 234 241 242 236 234 236 235 241 251 250 252 253 250 259 11 278 98 75 67 38 297 299 291 258 251 258 272 269 131 102 101 111 126 146 160 153
348 347 343 344 340 333 329 323 322 322 322 323 326 335 333 327 329 326 335 334 313 300 273 266 252 250 259 263 269 273 270 269 266 255 244 235 237 241 238 242 245 233 217 200 195 214 217 216 223 223 227 234 231 229 237 230 221 231 243 236 243 249 256 259 255 264 38 316 340 20 29 331 286 296 299 278 259 249 253 256 134 107 110 114 124 141 153 156
356 354 352 350 345 340 338 338 339 336 334 327 327 337 335 335 336 333 335 331 319 285 262 253 258 263 260 266 273 279 282 287 279 266 250 236 240 241 238 241 235 221 213 199 202 217 221 223 220 220 227 235 234 227 227 221 210 222 238 245 243 245 254 263 271 302 344 313 321 320 309 320 279 274 284 282 273 257 238 239 167 123 126 126 128 141 154 162
356 355 353 351 349 350 352 358 360 356 353 340 328 327 335 341 339 342 329 316 301 256 244 240 259 262 259 278 281 293 308 302 281 254 236 240 246 243 238 234 216 209 203 194 212 229 230 235 231 226 230 236 236 233 229 218 212 218 226 243 251 253 262 277 294 322 309 300 305 299 307 295 275 276 277 276 276 262 241 233 210 149 137 138 137 143 160 164
352 354 354 353 353 356 2 7 9 8 6 359 343 323 325 336 341 347 324 310 290 260 248 247 252 252 265 289 281 306 321 316 62 176 225 258 264 252 233 221 202 195 187 189 223 243 234 236 242 234 230 240 239 234 230 221 223 230 233 242 256 270 285 299 309 317 287 294 298 293 284 274 279 283 262 261 257 263 290 291 248 182 148 145 147 147 158 165
345 351 353 355 354 359 8 13 15 14 11 9 360 339 319 324 339 339 317 311 284 257 240 242 243 248 264 267 273 295 275 310 63 204 261 280 274 259 225 206 189 179 180 197 233 241 232 232 236 233 227 237 245 239 228 222 228 239 246 246 255 269 275 283 300 319 293 275 275 270 263 269 282 273 258 248 244 260 26 18 347 149 140 139 148 154 161 164
331 340 344 350 353 358 6 10 15 14 13 9 4 359 337 318 325 329 320 307 279 246 233 239 238 239 246 254 284 286 253 276 293 244 270 275 266 254 213 192 177 175 181 211 237 227 221 225 223 228 229 231 243 246 236 227 232 236 246 254 254 262 264 265 276 284 267 255 261 258 259 267 267 267 255 232 243 238 74 46 48 92 119 131 138 150 159 160
314 322 329 336 342 350 353 356 5 8 11 7 3 3 354 337 318 327 325 306 277 254 237 238 232 230 257 272 304 284 256 253 250 264 280 263 251 228 193 179 173 176 184 217 234 222 217 224 225 227 229 232 236 241 241 235 234 233 241 259 265 268 267 266 267 266 259 252 254 252 257 259 254 263 260 237 234 188 108 89 83 93 112 129 135 149 160 165
302 303 310 319 327 332 337 342 350 358 3 4 1 358 357 348 327 326 320 302 273 257 237 232 230 233 274 303 318 289 262 226 256 277 272 233 219 190 176 169 170 177 196 226 230 223 221 223 226 228 234 248 253 253 247 238 231 235 243 250 258 257 251 257 257 250 247 246 247 244 246 249 248 254 259 243 209 180 134 110 107 108 118 138 155 163 168 173
296 294 295 303 312 316 322 330 337 347 353 357 359 356 355 350 336 326 315 300 267 257 237 233 234 243 283 313 299 285 264 165 284 287 223 195 172 164 163 169 176 190 217 231 226 225 228 232 235 239 253 260 269 274 255 238 233 248 258 251 252 259 257 255 253 245 236 236 241 240 242 244 232 219 246 213 164 194 162 129 137 138 130 145 162 170 175 176
289 287 289 292 297 304 309 317 326 337 344 350 357 358 358 356 350 335 323 308 269 244 230 233 241 261 280 284 267 271 35 138 196 163 175 167 157 155 158 180 193 207 225 225 225 231 231 245 263 254 256 266 265 262 247 244 247 256 271 266 259 266 262 255 255 247 238 237 233 235 247 241 208 204 235 194 169 212 172 137 161 164 140 141 158 174 176 176
285 280 283 286 289 294 296 305 317 328 338 346 355 1 2 2 3 352 340 330 283 220 225 234 248 275 301 279 257 257 324 202 186 173 176 166 167 170 175 201 207 212 224 220 224 236 237 259 280 249 246 295 266 258 245 236 244 259 262 266 260 256 248 243 244 234 236 238 215 227 252 236 213 225 219 171 174 212 166 140 161 166 148 138 146 163 164 176
289 280 277 279 282 286 288 293 304 320 332 339 350 358 360 357 360 358 354 338 265 219 225 226 256 286 303 281 254 225 208 199 187 180 182 182 185 196 211 219 212 220 239 242 234 230 235 256 267 254 263 277 261 309 341 237 239 257 246 252 256 254 242 224 225 222 229 232 199 214 250 218 220 215 173 151 180 215 173 156 175 164 149 137 137 170 165 171
294 287 279 274 274 277 281 285 292 311 323 329 339 346 348 345 341 345 353 343 277 238 228 230 269 287 275 274 243 199 215 189 184 189 185 191 196 207 217 215 215 229 244 256 263 227 224 251 257 261 267 263 269 311 313 241 238 252 241 244 241 259 249 205 200 210 221 210 175 205 253 231 226 172 147 171 185 215 178 156 168 146 140 140 146 168 165 158
297 293 286 277 272 271 273 279 285 298 313 320 326 334 337 334 328 322 321 333 301 243 231 237 281 293 269 264 234 219 221 185 188 193 183 192 198 201 201 203 212 225 228 239 268 238 227 249 247 252 253 247 263 283 263 228 227 236 237 237 221 250 248 172 172 197 212 177 162 214 257 244 241 151 147 193 191 221 185 146 144 128 125 129 135 148 154 155
301 298 293 285 277 272 270 274 278 287 300 309 314 323 326 321 319 305 292 308 299 244 229 235 327 315 291 270 202 197 203 196 199 188 187 197 194 185 182 192 202 207 214 225 249 244 230 241 242 250 259 248 236 242 251 240 222 216 232 244 232 242 218 148 172 192 207 194 177 208 248 252 232 141 147 185 199 224 200 146 144 142 132 129 137 141 142 153
306 304 300 291 284 278 274 273 275 282 288 295 304 310 312 308 305 298 278 273 283 245 222 213 332 292 265 258 212 202 201 201 190 181 192 205 205 188 173 191 202 200 208 217 229 234 227 234 242 246 253 253 242 242 243 240 230 204 218 235 244 249 222 159 173 183 208 223 199 193 234 254 137 123 149 178 215 224 211 151 141 149 148 141 152 148 144 160
312 309 306 299 290 286 283 281 280 282 278 282 296 298 301 299 293 287 257 244 272 219 236 227 216 279 252 234 230 211 199 193 180 188 194 202 221 210 187 201 200 195 211 219 218 224 222 223 237 242 234 232 235 241 238 248 282 316 265 230 240 253 237 215 177 170 196 217 224 202 228 247 166 152 172 179 226 231 222 176 148 150 149 146 159 162 164 171
318 310 311 305 298 296 293 292 287 278 270 274 292 298 297 291 279 271 240 230 217 185 232 205 192 236 276 205 214 199 184 182 178 194 197 197 218 217 206 210 212 212 218 214 202 210 217 217 233 240 231 229 226 227 266 320 346 333 303 253 238 256 235 249 167 141 180 198 221 224 227 234 205 191 181 176 198 220 244 207 157 152 153 161 170 170 174 175
324 312 313 309 306 307 304 302 286 265 272 282 299 300 296 291 267 234 205 221 231 233 263 228 198 224 257 172 181 162 158 179 190 201 201 198 206 214 214 218 229 225 228 237 201 195 223 233 237 239 238 275 283 330 351 336 338 323 313 295 248 256 232 239 171 147 178 224 221 231 239 232 218 219 211 193 181 187 253 257 179 162 163 171 173 170 172 172
334 317 312 312 309 313 313 300 271 267 288 291 298 287 290 334 347 334 253 239 244 242 253 258 218 228 257 180 161 165 177 191 201 208 202 197 205 214 207 211 230 220 223 244 221 155 226 252 249 244 281 46 4 3 356 328 324 314 313 315 292 267 246 219 138 154 151 242 263 265 262 246 219 235 243 218 190 179 224 267 243 188 188 190 171 167 167 165
343 322 309 310 304 307 288 255 263 278 295 290 289 277 289 348 356 328 319 277 263 242 237 247 239 238 252 238 191 194 205 198 200 209 199 194 208 215 194 195 226 223 213 233 235 180 215 243 252 241 104 65 359 354 329 313 311 298 290 287 285 274 260 98 92 154 142 168 259 260 267 267 227 230 250 237 234 213 200 254 262 218 219 228 177 166 163 160
351 331 313 302 295 290 250 254 270 278 295 295 291 283 294 332 338 322 316 284 274 249 229 229 235 239 233 228 219 216 225 215 201 197 189 195 211 219 215 208 226 232 220 212 213 242 236 223 243 230 88 15 307 318 300 303 288 274 276 267 264 261 258 184 127 197 37 118 273 276 281 298 276 249 268 246 235 217 200 240 255 235 222 241 200 166 162 166
355 341 319 298 287 280 258 265 274 282 294 294 293 284 291 316 328 331 318 281 276 256 232 221 223 229 223 220 213 216 229 228 219 193 178 194 213 215 228 235 239 245 239 220 201 233 260 236 112 103 83 278 284 286 264 274 266 250 245 254 265 262 265 274 114 89 348 319 285 285 283 289 272 240 247 245 220 199 225 232 238 240 228 231 225 169 164 171
354 345 328 306 287 277 267 275 295 314 298 280 299 301 295 314 323 333 326 279 267 246 227 215 216 225 218 204 198 216 225 237 253 215 173 188 213 208 218 232 242 249 241 237 222 226 257 276 111 131 201 225 242 259 238 236 261 252 235 236 254 271 284 299 83 107 290 263 226 241 258 256 239 220 232 240 199 199 235 232 215 238 241 225 223 182 163 163
350 345 334 315 294 276 268 280 306 320 280 264 285 306 299 313 316 324 319 273 263 214 193 190 197 207 199 186 189 219 229 236 252 195 162 188 220 223 236 222 225 253 255 257 241 223 223 199 199 235 262 255 247 254 248 239 249 262 280 261 246 259 281 285 274 226 240 261 201 193 238 261 240 236 240 233 205 199 223 234 223 227 233 228 222 200 167 161
341 342 334 320 301 274 259 263 249 268 286 289 297 309 319 313 308 316 291 263 257 182 164 167 176 184 192 187 185 210 234 212 202 165 159 196 216 229 258 232 220 241 251 277 262 246 256 204 181 278 271 257 251 252 241 235 242 250 341 304 267 253 262 263 262 250 246 270 218 184 231 263 259 263 270 253 209 190 207 223 226 220 210 210 212 209 202 179
331 335 333 321 301 280 261 258 253 255 288 344 335 306 320 309 302 312 271 268 229 164 161 167 167 190 202 189 189 213 221 160 181 177 179 207 209 216 238 242 262 258 225 234 223 108 283 222 158 233 255 251 251 252 239 227 230 236 251 277 273 265 260 257 251 245 249 269 251 213 228 245 255 259 262 253 213 197 210 205 211 227 203 193 203 196 182 162
321 326 330 318 297 291 273 265 268 259 262 320 324 307 305 298 297 295 254 266 211 165 161 168 167 197 207 185 194 224 230 186 205 194 182 201 212 221 245 261 281 288 249 214 223 232 259 247 223 236 243 246 246 244 247 243 234 245 281 286 280 271 265 261 258 257 253 258 262 254 244 244 257 255 236 217 204 213 216 190 197 228 202 172 164 94 75 93
313 317 323 315 295 297 285 272 294 295 273 293 304 300 297 288 277 252 238 239 223 196 155 154 174 191 202 194 198 222 232 220 208 178 180 194 208 224 258 274 275 288 278 214 240 252 231 202 259 267 251 254 257 256 269 270 242 226 258 270 267 258 256 258 264 271 262 248 253 254 248 247 255 261 256 218 190 208 224 187 174 194 173 119 98 93 132 167
308 308 312 306 285 270 262 264 342 358 294 271 282 288 287 261 239 248 237 249 270 205 159 168 197 190 195 212 209 202 220 226 187 168 193 199 202 213 238 254 249 267 269 237 237 251 238 187 197 239 249 261 272 274 278 266 247 251 258 266 269 252 245 253 245 244 252 249 251 257 254 249 245 255 292 96 152 182 240 193 159 154 142 112 103 124 106 80
301 299 301 295 272 250 243 249 330 328 267 265 278 279 266 246 232 236 242 271 292 212 192 214 211 193 195 213 218 196 210 229 200 190 210 204 199 203 213 226 211 220 251 239 222 237 252 251 229 208 213 236 260 265 260 251 243 254 254 252 265 257 243 252 242 233 248 255 258 280 283 256 239 235 227 152 151 177 222 167 156 147 128 118 114 114 101 89
294 292 290 280 261 249 243 248 270 277 272 279 282 262 248 250 242 241 246 252 226 195 235 244 212 198 203 211 219 205 207 229 214 202 206 211 211 196 212 226 206 205 245 262 260 239 237 259 257 231 193 195 231 253 244 233 209 222 245 237 241 249 242 247 247 242 251 262 252 249 346 261 248 257 231 169 167 177 144 116 134 132 123 126 139 136 120 99
285 287 285 276 263 252 245 249 261 271 282 286 266 242 236 243 252 261 262 255 241 230 258 259 222 206 215 222 217 203 211 230 222 215 204 210 226 204 210 233 223 216 241 241 252 247 246 253 237 235 190 163 204 246 260 274 245 218 238 242 233 242 251 253 258 261 271 288 267 232 226 247 232 275 274 113 126 154 143 121 119 125 135 142 144 131 109 88
279 284 282 271 262 255 246 244 256 272 277 266 253 236 231 239 247 254 257 254 248 244 255 261 243 225 224 228 224 213 220 224 208 221 227 214 227 225 214 231 230 228 243 237 229 223 249 265 214 216 198 116 222 248 256 277 281 236 232 241 232 226 242 255 272 283 294 304 281 239 242 261 179 248 198 119 133 157 150 144 142 147 153 143 127 114 97 82
276 282 283 271 259 257 248 237 240 249 252 250 248 239 234 243 249 249 265 280 277 262 252 249 243 245 238 228 238 227 212 211 205 215 238 229 229 231 218 207 204 214 238 257 281 244 248 276 216 191 183 211 249 263 252 252 286 328 258 247 251 245 244 254 268 268 268 268 263 239 239 239 154 206 179 159 184 174 153 159 163 157 145 131 119 108 97 85
268 264 273 270 257 247 236 227 221 222 239 247 247 250 249 250 253 258 271 288 303 296 270 256 230 240 247 227 242 236 193 191 220 222 238 230 227 233 213 175 160 211 263 301 299 288 268 293 285 219 216 220 229 269 291 271 279 290 267 247 238 245 244 250 265 252 244 255 254 239 242 237 226 211 177 189 206 177 165 175 163 149 139 127 114 104 100 94
275 258 261 264 253 228 211 207 206 216 234 247 247 252 260 263 263 268 274 284 296 276 262 262 229 224 253 243 234 238 219 213 227 231 240 223 219 307 232 165 162 218 280 310 278 253 242 277 286 273 268 240 193 210 270 263 256 253 270 296 285 254 249 239 251 256 253 262 262 254 252 248 253 245 186 194 201 183 185 184 162 156 147 127 116 112 109 103
288 266 265 263 237 199 191 195 206 221 234 242 246 247 251 258 258 262 269 283 300 278 264 270 256 222 245 257 245 234 235 242 236 232 240 221 191 352 303 202 178 207 248 266 262 272 265 277 279 267 278 275 206 198 251 256 239 230 240 270 273 272 272 248 242 252 256 261 268 267 267 268 285 300 188 195 196 193 199 188 171 170 151 128 123 123 114 107
291 269 265 242 188 179 189 202 212 224 234 238 246 251 254 258 258 260 263 263 282 276 268 272 270 248 234 244 249 243 239 245 244 241 249 230 156 182 237 237 222 196 187 250 273 288 276 276 275 270 285 288 251 223 256 283 279 247 231 242 255 255 257 263 261 255 259 265 272 276 275 279 307 1 289 214 195 185 230 218 183 161 141 127 126 126 118 112
286 271 246 184 172 181 193 206 218 228 237 237 242 251 259 273 281 278 278 264 268 277 275 276 283 290 275 251 245 244 243 246 246 249 258 242 212 214 209 201 220 216 166 212 255 284 290 274 274 273 275 272 259 251 263 281 292 292 282 272 283 287 276 279 275 270 279 283 293 298 294 298 146 70 31 269 186 151 236 243 180 141 130 121 121 123 120 115
269 258 207 182 187 188 193 212 226 226 234 242 245 247 250 273 287 278 271 241 234 257 265 266 269 278 281 272 257 249 245 249 247 247 255 250 234 116 146 152 183 208 43 276 283 48 43 287 277 271 266 273 279 280 282 282 276 278 286 283 285 288 274 246 259 281 294 291 301 307 295 342 348 348 43 46 106 101 300 279 149 122 124 124 125 126 122 118
259 256 189 184 198 195 202 235 239 226 238 250 252 253 251 256 267 269 267 256 240 237 251 261 267 269 268 267 263 256 246 247 252 255 258 252 96 90 105 113 122 131 106 283 309 40 43 268 263 269 276 281 279 275 274 271 258 250 260 270 276 279 277 271 273 288 293 287 290 278 254 254 343 333 24 39 254 151 215 234 149 118 125 132 131 131 127 124
290 288 259 201 195 201 214 237 240 235 242 245 250 257 259 260 261 264 268 265 257 249 255 273 281 280 279 279 275 269 264 249 243 252 261 253 112 103 109 97 77 268 68 41 17 28 332 248 240 261 277 277 265 253 250 254 256 255 262 282 291 292 287 279 275 279 276 278 282 277 272 240 108 316 350 326 261 189 197 183 132 124 139 139 134 137 133 130
303 292 258 210 185 201 228 243 250 254 257 258 261 262 262 258 251 258 275 287 283 280 289 286 282 291 290 281 278 272 273 274 257 252 264 255 137 126 141 119 107 354 51 56 44 7 293 277 274 266 266 271 269 269 292 320 320 312 308 299 299 312 311 302 288 273 268 276 279 274 278 303 116 190 303 322 282 246 223 163 132 133 143 134 134 143 141 138
293 292 266 223 194 210 236 245 253 260 268 279 281 273 267 259 245 249 269 282 275 273 286 279 277 296 288 278 287 280 269 276 272 255 259 258 205 143 144 143 117 78 64 49 25 339 286 279 276 269 268 274 281 296 316 325 313 298 293 286 278 286 298 303 294 270 280 297 286 276 291 318 334 299 354 334 292 269 300 286 140 138 146 146 144 150 151 149
281 300 337 324 276 256 246 243 252 260 259 260 260 258 261 259 254 238 221 266 269 265 279 278 271 276 274 271 284 286 277 277 273 262 255 260 256 120 123 143 127 100 80 30 282 252 273 259 256 263 266 271 278 288 297 300 294 287 286 285 279 274 280 294 292 283 293 294 272 283 320 326 321 323 348 348 318 313 323 299 208 156 162 162 157 165 168 157
336 322 6 20 331 278 282 303 312 311 292 280 274 273 269 265 262 241 190 271 287 272 254 266 266 264 264 261 258 263 272 272 271 274 269 264 263 154 155 172 124 114 113 270 232 202 250 258 255 262 264 266 272 276 280 282 283 283 283 283 282 282 282 282 275 273 276 277 274 287 306 302 300 309 316 321 322 316 289 267 250 215 185 166 163 181 185 172
7 340 354 2 330 284 318 338 328 317 311 312 304 289 283 275 274 272 256 269 293 292 281 274 270 268 265 262 259 264 291 295 290 309 323 304 290 286 273 248 151 147 166 260 245 203 221 260 268 273 274 275 275 277 282 284 282 284 284 281 278 276 277 275 273 273 270 269 273 277 277 275 281 297 307 308 308 302 294 291 288 276 253 200 178 199 213 204
2 347 343 341 326 306 319 325 308 294 296 305 289 289 293 285 279 281 280 285 307 317 310 297 296 299 288 273 268 305 40 25 353 352 358 343 314 298 304 304 287 257 238 251 248 181 160 262 293 293 284 282 282 283 285 283 282 284 284 285 286 284 282 279 277 283 283 276 278 286 292 293 293 299 299 297 295 290 289 288 274 262 256 240 220 225 233 228
358 348 336 330 324 319 316 308 292 285 298 339 334 337 324 305 296 292 303 3 347 336 338 328 323 323 311 301 352 35 36 21 0 351 344 331 313 304 305 303 311 307 283 267 260 164 160 253 293 295 279 278 282 278 278 282 284 281 278 284 290 287 288 286 278 275 280 281 286 292 293 296 311 316 297 287 287 294 308 318 316 307 284 255 240 237 236 239
3 356 346 338 315 302 304 305 323 336 345 348 346 342 329 317 317 324 352 0 311 298 359 353 331 312 318 353 25 22 3 348 341 332 322 310 296 291 287 280 290 300 294 286 287 268 248 261 273 278 276 283 286 284 293 299 288 279 283 301 302 300 312 313 299 290 290 297 299 288 290 318 337 340 324 310 310 311 321 333 334 332 322 294 269 255 240 238